User: anonymous   Login
Location: Canyam�s
(41.5996°N, 2.4450°E)
Time: 03:20:07
(UTC+00:00)
Language:

Gurwin Techsat 1B - Orbit

View from above orbital plane
View from above orbital plane
View from above satellite
View from above satellite

Ground track
Ground track

The orbit data is extracted from the following two-line orbital elements,

1 25397U 98043D   20296.44079098 -.00000001  00000-0  18839-4 0  9995
2 25397 098.7398 237.0302 0002275 068.0975 292.0445 14.23692671157628
Epoch (UTC): 22 October 2020 10:34:44
Eccentricity: 0.0002275
inclination: 98.7398°
perigee height: 811 km
apogee height: 814 km
right ascension of ascending node: 237.0302°
argument of perigee: 68.0975°
revolutions per day: 14.23692671
mean anomaly at epoch: 292.0445°
orbit number at epoch: 15762

The dashed part of the orbit path shows where the satellite is in the earth's shadow,  

DLR